User: anonymous   Login
Location: Bittelbronn
(48.4454°N, 8.5870°E)
Time: 13:17:09
(UTC+00:00)
Language:

EXPRESS MD2 - Orbit

View from above orbital plane
View from above orbital plane
View from above satellite
View from above satellite

Ground track
Ground track

The orbit data is extracted from the following two-line orbital elements,

1 38745U 12044B   24202.83383105  .00049268  44120-5  10553-2 0  9990
2 38745  49.8538  49.7100 1866043 178.2191 182.6634 11.77056088476330
Epoch (UTC): 20 July 2024 20:00:43
Eccentricity: 0.1866043
inclination: 49.8538°
perigee height: 262 km
apogee height: 3308 km
right ascension of ascending node: 49.7100°
argument of perigee: 178.2191°
revolutions per day: 11.77056088
mean anomaly at epoch: 182.6634°
orbit number at epoch: 47633

The dashed part of the orbit path shows where the satellite is in the earth's shadow,  

DLR